Weather History for KIML - October, 2011

Change the Weather History Date:

Monday, October 3, 2011

  Actual Average Record
Temperature  
Mean Temperature 66 °F 57 °F  
Max Temperature 89 °F 71 °F 94 °F (2012)
Min Temperature 42 °F 42 °F 24 °F (1899)
Degree Days  
Heating Degree Days 0 9  
Month to date heating degree days 3 26  
Cooling Degree Days 1 1  
Month to date cooling degree days 1 3  
Year to date cooling degree days 1080 960  
Growing Degree Days 16 (Base 50)    
Moisture  
Dew Point 40 °F    
Average Humidity 49    
Maximum Humidity 82    
Minimum Humidity 16    
Precipitation  
Precipitation 0.00 in 0.04 in 0.87 in (1990)
Sea Level Pressure  
Sea Level Pressure 30.00 in    
Wind  
Wind Speed 5 mph (SE)    
Max Wind Speed 17 mph    
Max Gust Speed 23 mph    
Visibility 10 miles    
Events      
T = Trace of Precipitation, MM = Missing Value Source: NWS Daily Summary

Daily Weather History Graph

Daily Weather History Graph

Search for Another Location

Airport or City:

Trip Planner

Search our weather history database for the weather conditions in past years. The results will help you decide how hot, cold, wet, or windy it might be!

Date:

Astronomy

Oct. 03, 2011 Rise Set
Actual Time 6:44 AM MDT 6:25 PM MDT
Civil Twilight 6:17 AM MDT 6:52 PM MDT
Nautical Twilight 5:45 AM MDT 7:24 PM MDT
Astronomical Twilight 5:13 AM MDT 7:56 PM MDT
Moon 1:45 PM MDT 11:29 PM MDT
Length of Visible Light 12h 35m
Length of Day
11h 40m
Waxing Crescent, 46% of the Moon is Illuminated
Oct 3
Waxing Crescent
Oct 3
First Quarter
Oct 11
Full
Oct 19
Last Quarter
Oct 26
New

Hourly Weather History & Observations

Time (MDT) Temp. Windchill Dew Point Humidity Pressure Visibility Wind Dir Wind Speed Gust Speed Precip Events Conditions
12:53 AM 53.1 °F - 37.9 °F 57% 30.00 in 10.0 mi Calm Calm - N/A   Clear
1:53 AM 48.0 °F - 37.9 °F 68% 30.02 in 10.0 mi Calm Calm - N/A   Clear
2:53 AM 46.0 °F 44.8 °F 37.9 °F 73% 29.99 in 10.0 mi East 3.5 mph - N/A   Clear
3:53 AM 46.0 °F - 37.9 °F 73% 30.01 in 10.0 mi Calm Calm - N/A   Clear
5:53 AM 44.1 °F - 37.0 °F 76% 30.04 in 10.0 mi Calm Calm - N/A   Clear
6:53 AM 43.0 °F - 37.0 °F 80% 30.06 in 10.0 mi Calm Calm - N/A   Clear
7:53 AM 50.0 °F - 39.0 °F 66% 30.07 in 10.0 mi Calm Calm - N/A   Clear
9:53 AM 64.9 °F - 42.1 °F 43% 30.07 in 10.0 mi Calm Calm - N/A   Clear
10:53 AM 73.9 °F - 41.0 °F 30% 30.05 in 10.0 mi East 6.9 mph - N/A   Clear
11:53 AM 78.8 °F - 39.2 °F 24% 30.09 in 10.0 mi ESE 6.9 mph - N/A   Clear
12:53 PM 82.0 °F - 39.0 °F 22% 30.00 in 10.0 mi ESE 5.8 mph - N/A   Clear
1:53 PM 84.9 °F - 39.9 °F 20% 29.98 in 10.0 mi SE 9.2 mph - N/A   Clear
2:53 PM 88.0 °F - 37.9 °F 17% 29.97 in 10.0 mi SSE 12.7 mph - N/A   Clear
3:53 PM 87.1 °F - 39.9 °F 19% 29.96 in 10.0 mi SSE 10.4 mph - N/A   Clear
4:53 PM 88.0 °F - 36.0 °F 16% 29.94 in 10.0 mi SE 9.2 mph - N/A   Clear
5:53 PM 81.0 °F - 42.1 °F 25% 29.96 in 10.0 mi ESE 6.9 mph - N/A   Clear
6:53 PM 69.8 °F - 41.0 °F 35% 30.01 in 10.0 mi ESE 5.8 mph - N/A   Clear
7:53 PM 71.1 °F - 39.9 °F 32% 29.98 in 10.0 mi ESE 10.4 mph - N/A   Clear
8:53 PM 66.9 °F - 43.0 °F 42% 29.97 in 10.0 mi ESE 8.1 mph - N/A   Clear
9:53 PM 59.0 °F - 43.0 °F 55% 29.97 in 10.0 mi SE 6.9 mph - N/A   Clear
10:53 PM 57.9 °F - 43.0 °F 58% 29.95 in 10.0 mi SE 3.5 mph - N/A   Clear
11:53 PM 57.0 °F - 43.0 °F 59% 29.94 in 10.0 mi SSE 5.8 mph - N/A   Clear